M I D A S
Marine Information and Data Acquisition System
Tripno 149 of the Zeeleeuw from 2001-08-14 05:36:19 to 2001-08-14 20:05:00
Back to CruiseResearch ActivitiesStationsMapUnderway DataData graphs

EquipmentUnitsComments
TimeDGPSUTC
LatitudeDGPSDM.mWGS84
LongitudeDGPSDM.mWGS84
SpeedMeteo Stationm/sRelative wind speed
DirectionMeteo StationdegRelative wind direction
TemperatureMeteo Stationdeg CelciusAir temperature
PressureMeteo StationPaAtmospheric pressure
HumidityMeteo Station%Relative humidity
Missing or incorrect values are displayed as -999
Metereological data collected by the RV Zeeleeuw from 2001-08-14 05:36:19 to 2001-08-14 20:05:00
Time Latitude Longitude Speed Direction Temperature Pressure Humidity
2001-08-14 05:37 51°13.675 2°55.922 1.4 320 15.3 101440 97
2001-08-14 06:48 51°13.678 2°55.924 1.6 275 15.2 101460 97
2001-08-14 06:49 51°13.678 2°55.924 1.7 239 15.2 101460 97
2001-08-14 06:50 51°13.678 2°55.923 1.4 235 15.2 101460 97
2001-08-14 06:51 51°13.678 2°55.923 1.5 275 15.1 101450 97
2001-08-14 06:52 51°13.678 2°55.923 1.5 280 15.1 101450 97
2001-08-14 06:53 51°13.677 2°55.923 1.1 233 15.1 101450 97
2001-08-14 06:54 51°13.676 2°55.924 0.2 216 15.1 101450 97
2001-08-14 06:55 51°13.676 2°55.924 0.9 304 15.1 101450 97
2001-08-14 06:56 51°13.676 2°55.924 1.6 337 15.1 101450 97
2001-08-14 06:57 51°13.676 2°55.926 1.9 309 15.1 101460 97
2001-08-14 06:58 51°13.676 2°55.926 1.4 322 15.1 101460 97
2001-08-14 06:59 51°13.676 2°55.927 1.7 333 15.1 101460 97
2001-08-14 07:00 51°13.675 2°55.928 0.9 329 15.1 101460 97
2001-08-14 07:01 51°13.677 2°55.919 1.4 301 15.1 101460 97
2001-08-14 07:02 51°13.687 2°55.865 1.2 240 15.1 101470 97
2001-08-14 07:03 51°13.69 2°55.778 1.7 205 15.1 101460 97
2001-08-14 07:04 51°13.69 2°55.723 1.2 260 15.1 101470 97
2001-08-14 07:05 51°13.761 2°55.7 1.1 358 15.1 101460 97
2001-08-14 07:06 51°13.836 2°55.619 1 37 15.1 101460 98
2001-08-14 07:07 51°13.914 2°55.556 3 36 15.2 101460 98
2001-08-14 07:08 51°14.01 2°55.505 2 332 15.2 101460 98
2001-08-14 07:09 51°14.092 2°55.456 1.2 14 15.3 101470 98
2001-08-14 07:10 51°14.174 2°55.392 2.1 15 15.3 101470 97
2001-08-14 07:11 51°14.263 2°55.276 4.5 25 15.2 101470 97
2001-08-14 07:12 51°14.338 2°55.131 2.5 34 15.2 101470 97
2001-08-14 07:13 51°14.454 2°55.006 3.8 17 15.2 101470 97
2001-08-14 07:14 51°14.631 2°54.876 6.5 13 15.3 101460 98
2001-08-14 07:15 51°14.833 2°54.712 6.3 14 15.2 101470 97
2001-08-14 07:16 51°15.011 2°54.501 5.5 16 15.2 101460 97
2001-08-14 07:17 51°15.195 2°54.298 5.3 7 15.2 101460 97
2001-08-14 07:18 51°15.373 2°54.097 5.7 10 15.3 101460 97
2001-08-14 07:19 51°15.557 2°53.891 6.3 16 15.3 101460 97
2001-08-14 07:20 51°15.743 2°53.678 6.4 28 15.3 101460 97
2001-08-14 07:21 51°15.924 2°53.477 5.3 17 15.3 101460 97
2001-08-14 07:22 51°16.119 2°53.277 5.7 13 15.3 101460 97
2001-08-14 07:23 51°16.317 2°53.103 4.7 3 15.3 101460 97
2001-08-14 07:24 51°16.517 2°52.958 5.3 3 15.4 101460 97
2001-08-14 07:25 51°16.72 2°52.797 4 7 15.4 101460 97
2001-08-14 07:26 51°16.93 2°52.631 4.3 9 15.4 101470 97
2001-08-14 07:27 51°17.137 2°52.475 5.2 13 15.5 101470 97
2001-08-14 07:28 51°17.332 2°52.31 5 10 15.5 101460 97
2001-08-14 07:29 51°17.519 2°52.103 5.3 21 15.6 101460 97
2001-08-14 07:30 51°17.647 2°51.819 8.2 21 15.7 101450 97
2001-08-14 07:31 51°17.732 2°51.501 7.5 21 15.7 101460 97
2001-08-14 07:32 51°17.812 2°51.177 8.7 29 15.7 101460 97
2001-08-14 07:33 51°17.897 2°50.844 7.3 24 15.8 101450 97
2001-08-14 07:34 51°17.985 2°50.524 7.6 28 15.8 101460 97
2001-08-14 07:35 51°18.063 2°50.213 8.7 20 15.8 101460 97
2001-08-14 07:36 51°18.143 2°49.889 8 32 15.9 101460 97
2001-08-14 07:37 51°18.228 2°49.556 8.7 32 15.9 101460 96
2001-08-14 07:38 51°18.306 2°49.232 7.7 27 15.9 101460 96
2001-08-14 07:39 51°18.383 2°48.922 7.9 28 16 101470 96
2001-08-14 07:40 51°18.466 2°48.591 8 26 16 101460 96
2001-08-14 07:41 51°18.554 2°48.272 8.4 23 16.1 101470 96
2001-08-14 07:42 51°18.642 2°47.966 8.1 25 16.1 101460 95
2001-08-14 07:43 51°18.734 2°47.653 8.4 31 16 101460 95
2001-08-14 07:44 51°18.825 2°47.325 7.9 28 16.1 101460 94
2001-08-14 07:45 51°18.903 2°47.005 9.3 26 16.1 101470 94
2001-08-14 07:46 51°18.98 2°46.689 8.4 26 16.2 101460 94
2001-08-14 07:47 51°19.056 2°46.359 9.4 31 16.2 101460 94
2001-08-14 07:48 51°19.13 2°46.033 7.6 20 16.2 101460 93
2001-08-14 07:49 51°19.209 2°45.711 8.3 25 16.3 101450 93
2001-08-14 07:50 51°19.278 2°45.399 9.6 33 16.3 101460 93
2001-08-14 07:51 51°19.358 2°45.075 10.1 29 16.3 101460 93
2001-08-14 07:52 51°19.438 2°44.759 8.3 26 16.3 101460 93
2001-08-14 07:53 51°19.518 2°44.443 7.6 24 16.3 101460 92
2001-08-14 07:54 51°19.594 2°44.12 9.7 25 16.3 101460 92
2001-08-14 07:55 51°19.67 2°43.798 10 34 16.3 101460 92
2001-08-14 07:56 51°19.746 2°43.473 10.9 30 16.3 101460 92
2001-08-14 07:57 51°19.82 2°43.146 9.5 31 16.3 101460 92
2001-08-14 07:58 51°19.894 2°42.818 10.3 28 16.2 101460 92
2001-08-14 07:59 51°19.963 2°42.489 9.3 29 16.2 101460 92
2001-08-14 08:00 51°20.031 2°42.172 9.8 29 16.2 101470 92
2001-08-14 08:01 51°20.099 2°41.845 8.8 29 16.2 101460 92
2001-08-14 08:02 51°20.185 2°41.517 8.2 27 16.2 101460 92
2001-08-14 08:03 51°20.265 2°41.198 8 28 16.1 101460 92
2001-08-14 08:04 51°20.345 2°40.881 9.6 28 16.1 101470 92
2001-08-14 08:05 51°20.42 2°40.56 9.1 27 16.1 101460 92
2001-08-14 08:06 51°20.49 2°40.235 7.5 26 16.1 101470 92
2001-08-14 08:07 51°20.56 2°39.907 9.8 29 16.1 101460 92
2001-08-14 08:08 51°20.628 2°39.578 10.1 34 16.1 101460 92
2001-08-14 08:09 51°20.683 2°39.245 9.3 26 16.2 101460 93
2001-08-14 08:10 51°20.734 2°38.911 10.1 24 16.3 101460 92
2001-08-14 08:11 51°20.786 2°38.576 8.8 22 16.3 101470 92
2001-08-14 08:12 51°20.832 2°38.24 8.7 21 16.3 101470 92
2001-08-14 08:13 51°20.88 2°37.905 9.4 22 16.3 101460 92
2001-08-14 08:14 51°20.927 2°37.571 9.9 21 16.4 101460 92
2001-08-14 08:15 51°20.981 2°37.239 9.5 25 16.4 101470 91
2001-08-14 08:16 51°21.066 2°36.923 8.7 24 16.4 101460 91
2001-08-14 08:17 51°21.207 2°36.66 6.8 22 16.5 101470 92
2001-08-14 08:18 51°21.418 2°36.544 6.6 31 16.5 101480 91
2001-08-14 08:19 51°21.654 2°36.524 5.7 21 16.5 101470 91
2001-08-14 08:20 51°21.89 2°36.501 5.1 16 16.5 101480 91
2001-08-14 08:21 51°22.128 2°36.502 6.5 30 16.6 101470 91
2001-08-14 08:22 51°22.367 2°36.523 4.7 17 16.6 101480 90
2001-08-14 08:23 51°22.601 2°36.497 6.4 28 16.6 101480 90
2001-08-14 08:24 51°22.83 2°36.426 7.9 31 16.6 101480 91
2001-08-14 08:25 51°23.046 2°36.295 7 33 16.7 101470 91
2001-08-14 08:26 51°23.253 2°36.135 7.8 32 16.7 101470 90
2001-08-14 08:27 51°23.449 2°35.95 8.3 34 16.7 101480 90
2001-08-14 08:28 51°23.656 2°35.785 7 37 16.7 101480 90
2001-08-14 08:29 51°23.863 2°35.623 7.8 35 16.8 101470 90
2001-08-14 08:30 51°24.073 2°35.467 7.5 31 16.8 101470 90
2001-08-14 08:31 51°24.281 2°35.309 8.8 31 16.8 101480 90
2001-08-14 08:32 51°24.506 2°35.205 7.8 32 16.9 101480 90
2001-08-14 08:33 51°24.741 2°35.157 7.8 32 16.9 101480 90
2001-08-14 08:34 51°24.977 2°35.113 5.7 27 16.9 101480 89
2001-08-14 08:35 51°25.214 2°35.083 6.3 30 16.9 101480 89
2001-08-14 08:36 51°25.451 2°35.045 5.4 36 16.9 101480 89
2001-08-14 08:37 51°25.687 2°35.018 5 41 16.9 101480 89
2001-08-14 08:38 51°25.921 2°34.99 4.8 32 17 101480 89
2001-08-14 08:39 51°26.156 2°34.985 4.6 20 17 101480 89
2001-08-14 08:40 51°26.39 2°34.971 4.9 40 17 101490 89
2001-08-14 08:41 51°26.623 2°34.941 3.7 36 17.1 101480 89
2001-08-14 08:42 51°26.858 2°34.95 5.2 30 17 101490 89
2001-08-14 08:43 51°27.094 2°34.972 4.9 32 17 101490 89
2001-08-14 08:44 51°27.331 2°35.002 4.1 19 17.1 101490 89
2001-08-14 08:45 51°27.571 2°35.04 3.4 18 17.1 101490 89
2001-08-14 08:46 51°27.811 2°35.073 4 31 17.1 101490 88
2001-08-14 08:47 51°28.051 2°35.114 3.3 23 17.1 101490 89
2001-08-14 08:48 51°28.291 2°35.138 4.3 18 17.1 101490 89
2001-08-14 08:49 51°28.532 2°35.179 4.3 13 17.1 101490 88
2001-08-14 08:50 51°28.773 2°35.224 3.8 25 17.1 101500 88
2001-08-14 08:51 51°29.013 2°35.272 4 9 17.2 101490 88
2001-08-14 08:52 51°29.253 2°35.304 5.4 32 17.2 101490 88
2001-08-14 08:53 51°29.496 2°35.348 3.9 20 17.2 101490 88
2001-08-14 08:54 51°29.738 2°35.388 3.8 28 17.2 101490 88
2001-08-14 08:55 51°29.979 2°35.436 3.2 17 17.2 101490 88
2001-08-14 08:56 51°30.219 2°35.475 3.5 14 17.3 101490 88
2001-08-14 08:57 51°30.458 2°35.526 3.4 26 17.3 101490 88
2001-08-14 08:58 51°30.697 2°35.575 3.6 17 17.3 101490 88
2001-08-14 08:59 51°30.932 2°35.641 3.9 20 17.4 101490 88
2001-08-14 09:00 51°31.17 2°35.691 5 30 17.4 101480 88
2001-08-14 09:01 51°31.409 2°35.707 3.4 39 17.4 101480 88
2001-08-14 09:02 51°31.647 2°35.732 3.7 41 17.4 101480 88
2001-08-14 09:03 51°31.885 2°35.753 3.1 41 17.4 101490 88
2001-08-14 09:04 51°32.123 2°35.771 5.4 27 17.5 101480 88
2001-08-14 09:05 51°32.361 2°35.779 5.2 34 17.5 101480 88
2001-08-14 09:06 51°32.599 2°35.791 3.5 44 17.5 101480 88
2001-08-14 09:07 51°32.835 2°35.807 3.9 55 17.5 101480 87
2001-08-14 09:08 51°33.074 2°35.813 2.6 47 17.5 101490 87
2001-08-14 09:09 51°33.312 2°35.837 2.9 37 17.5 101490 88
2001-08-14 09:10 51°33.55 2°35.859 3.9 41 17.5 101490 88
2001-08-14 09:11 51°33.789 2°35.88 2.5 49 17.5 101480 87
2001-08-14 09:12 51°34.028 2°35.898 3.3 52 17.5 101480 88
2001-08-14 09:13 51°34.228 2°35.917 0.6 247 17.4 101490 88
2001-08-14 09:14 51°34.416 2°35.949 1 112 17.4 101480 88
2001-08-14 09:15 51°34.593 2°35.974 0.5 243 17.3 101490 88
2001-08-14 09:16 51°34.771 2°35.991 1.3 326 17.3 101490 88
2001-08-14 09:17 51°34.948 2°36.008 1 245 17.4 101490 88
2001-08-14 09:18 51°35.109 2°36.025 0.5 251 17.4 101490 88
2001-08-14 09:19 51°35.265 2°36.052 1 122 17.3 101490 88
2001-08-14 09:20 51°35.418 2°36.09 0.5 91 17.3 101480 89
2001-08-14 09:21 51°35.567 2°36.127 0.9 131 17.3 101480 89
2001-08-14 09:22 51°35.727 2°36.164 0.4 106 17.3 101480 89
2001-08-14 09:23 51°35.884 2°36.204 1 106 17.3 101480 89
2001-08-14 09:24 51°36.039 2°36.238 0.6 205 17.3 101480 89
2001-08-14 09:25 51°36.194 2°36.277 0.9 108 17.3 101480 89
2001-08-14 09:26 51°36.348 2°36.321 1.9 114 17.3 101480 89
2001-08-14 09:27 51°36.501 2°36.364 1.6 118 17.3 101480 89
2001-08-14 09:28 51°36.646 2°36.402 1.5 126 17.3 101480 89
2001-08-14 09:29 51°36.801 2°36.445 0.9 102 17.4 101480 89
2001-08-14 09:30 51°36.951 2°36.482 0.7 116 17.3 101480 89
2001-08-14 09:31 51°37.101 2°36.511 0.3 145 17.4 101480 89
2001-08-14 09:32 51°37.247 2°36.541 1 104 17.4 101490 89
2001-08-14 09:33 51°37.356 2°36.544 2.7 129 17.3 101480 89
2001-08-14 09:34 51°37.443 2°36.546 2.5 127 17.3 101480 89
2001-08-14 09:35 51°37.51 2°36.539 2.1 115 17.3 101480 89
2001-08-14 09:36 51°37.531 2°36.554 4.2 124 17.3 101470 89
2001-08-14 09:37 51°37.536 2°36.585 3.7 130 17.4 101470 89
2001-08-14 09:38 51°37.548 2°36.614 4.4 122 17.3 101470 89
2001-08-14 09:39 51°37.565 2°36.639 2.6 120 17.2 101480 89
2001-08-14 09:40 51°37.592 2°36.654 2.8 114 17.3 101480 90
2001-08-14 09:41 51°37.622 2°36.643 1.3 106 17.3 101470 90
2001-08-14 09:42 51°37.642 2°36.612 9 35 17.3 101480 90
2001-08-14 09:43 51°37.644 2°36.581 7.7 8 17.3 101470 89
2001-08-14 09:44 51°37.624 2°36.569 7.5   17.3 101480 89
2001-08-14 09:45 51°37.587 2°36.545 8.2 360 17.3 101470 89
2001-08-14 09:46 51°37.561 2°36.521 7.7 358 17.3 101470 89
2001-08-14 09:47 51°37.536 2°36.521 6 353 17.3 101470 89
2001-08-14 09:48 51°37.52 2°36.525 6.3 357 17.3 101480 90
2001-08-14 09:49 51°37.521 2°36.532 6.5 2 17.3 101480 89
2001-08-14 09:50 51°37.526 2°36.541 6 4 17.4 101480 89
2001-08-14 09:51 51°37.537 2°36.552 5.8 15 17.4 101480 89
2001-08-14 09:52 51°37.552 2°36.565 6.7 28 17.4 101480 88
2001-08-14 09:53 51°37.571 2°36.581 3.5 319 17.5 101480 88
2001-08-14 09:54 51°37.591 2°36.597 5.9 51 17.5 101480 88
2001-08-14 09:55 51°37.612 2°36.615 1.4 288 17.5 101480 88
2001-08-14 09:56 51°37.646 2°36.605 0.7 214 17.5 101480 89
2001-08-14 09:57 51°37.743 2°36.658 1 250 17.5 101490 89
2001-08-14 09:58 51°37.745 2°36.804 5.8 319 17.5 101480 88
2001-08-14 09:59 51°37.667 2°36.892 7.3 341 17.4 101470 89
2001-08-14 10:00 51°37.535 2°37.016 9 349 17.2 101460 89
2001-08-14 10:01 51°37.397 2°37.167 8.4 337 17.2 101460 90
2001-08-14 10:02 51°37.237 2°37.317 8.9 343 17.1 101470 90
2001-08-14 10:03 51°37.072 2°37.452 8.5 346 17 101460 91
2001-08-14 10:04 51°36.916 2°37.559 7.6 351 17.1 101470 91
2001-08-14 10:05 51°36.87 2°37.573 5.5 15 17.1 101480 90
2001-08-14 10:06 51°36.876 2°37.575 5.8 31 17.2 101480 90
2001-08-14 10:07 51°36.889 2°37.577 2.6 131 17.3 101470 90
2001-08-14 10:08 51°36.906 2°37.58 6.1 24 17.4 101480 89
2001-08-14 10:09 51°36.903 2°37.52 7.7 14 17.4 101470 88
2001-08-14 10:10 51°36.819 2°37.559 7.2 334 17.4 101470 89
2001-08-14 10:11 51°36.717 2°37.755 7.3 339 17.2 101470 89
2001-08-14 10:12 51°36.629 2°37.981 7.2 333 17.1 101470 90
2001-08-14 10:13 51°36.531 2°38.22 7.8 343 17 101470 91
2001-08-14 10:14 51°36.433 2°38.444 7.3 333 16.9 101470 91
2001-08-14 10:15 51°36.32 2°38.639 7.1 334 16.7 101470 91
2001-08-14 10:16 51°36.259 2°38.769 5 303 16.7 101480 92
2001-08-14 10:17 51°36.265 2°38.824 3.5 224 16.7 101480 92
2001-08-14 10:18 51°36.285 2°38.84 3.2 208 16.7 101480 92
2001-08-14 10:19 51°36.306 2°38.858 2.4 191 16.7 101490 92
2001-08-14 10:20 51°36.33 2°38.877 3.4 185 16.8 101490 92
2001-08-14 10:21 51°36.369 2°38.955 3.3 282 16.8 101490 92
2001-08-14 10:22 51°36.295 2°39.056 8.2 358 16.8 101490 92
2001-08-14 10:23 51°36.159 2°38.895 11.3 7 16.9 101480 92
2001-08-14 10:24 51°35.994 2°38.697 12.3 8 16.9 101470 91
2001-08-14 10:25 51°35.824 2°38.508 12.2 4 17 101470 91
2001-08-14 10:26 51°35.653 2°38.315 11.6 4 16.9 101470 91
2001-08-14 10:27 51°35.483 2°38.122 11.2 5 17 101470 91
2001-08-14 10:28 51°35.316 2°37.92 11.3 2 17 101470 91
2001-08-14 10:29 51°35.145 2°37.749 12 3 17 101470 91
2001-08-14 10:30 51°34.974 2°37.535 11.6 11 17 101470 91
2001-08-14 10:31 51°34.805 2°37.335 11.3 6 17 101470 91
2001-08-14 10:32 51°34.703 2°37.171 8.6 14 17 101480 91
2001-08-14 10:33 51°34.7 2°37.118 5.7 31 17.1 101480 91
2001-08-14 10:34 51°34.715 2°37.119 3.3 133 17.1 101480 91
2001-08-14 10:35 51°34.732 2°37.119 0.8 313 17 101490 91
2001-08-14 10:36 51°34.751 2°37.112 3.4 11 17 101490 91
2001-08-14 10:37 51°34.806 2°36.948 3.5 43 17 101480 91
2001-08-14 10:38 51°34.949 2°36.769 6.1 37 17 101480 91
2001-08-14 10:39 51°35.09 2°36.566 7.6 35 17.1 101470 91
2001-08-14 10:40 51°35.228 2°36.363 3.1 40 17 101470 91
2001-08-14 10:41 51°35.318 2°36.222 2.5 356 17 101470 91
2001-08-14 10:42 51°35.361 2°36.174 1.4 97 17 101480 91
2001-08-14 10:43 51°35.373 2°36.188 2.3 108 16.9 101480 91
2001-08-14 10:44 51°35.387 2°36.199 2.4 121 16.8 101480 91
2001-08-14 10:45 51°35.401 2°36.207 2.2 114 16.8 101480 92
2001-08-14 10:46 51°35.482 2°36.242 3 315 16.8 101480 92
2001-08-14 10:47 51°35.441 2°36.465 8.4 342 16.8 101470 92
2001-08-14 10:48 51°35.285 2°36.696 8.4 338 16.7 101460 92
2001-08-14 10:49 51°35.126 2°36.933 8.7 348 16.7 101460 93
2001-08-14 10:50 51°34.967 2°37.17 8.7 348 16.8 101460 93
2001-08-14 10:51 51°34.8 2°37.391 8 348 16.8 101460 93
2001-08-14 10:52 51°34.635 2°37.617 8.8 348 16.9 101460 93
2001-08-14 10:53 51°34.473 2°37.846 8.9 355 17 101450 92
2001-08-14 10:54 51°34.325 2°38.061 7.1 353 17.1 101460 92
2001-08-14 10:55 51°34.254 2°38.147 4.3 4 17.1 101470 91
2001-08-14 10:56 51°34.254 2°38.151 3.7 19 17.2 101480 91
2001-08-14 10:57 51°34.26 2°38.148 2 318 17.3 101480 91
2001-08-14 10:58 51°34.271 2°38.148 3.2 9 17.3 101480 91
2001-08-14 10:59 51°34.284 2°38.146 2.7 19 17.4 101480 90
2001-08-14 11:00 51°34.299 2°38.145 2 45 17.4 101480 90
2001-08-14 11:01 51°34.313 2°38.145 1.3 133 17.4 101480 90
2001-08-14 11:02 51°34.327 2°38.145 2 34 17.5 101470 90
2001-08-14 11:03 51°34.287 2°38.14 5.5 347 17.5 101470 89
2001-08-14 11:04 51°34.309 2°38.291 2.8 320 17.4 101470 89
2001-08-14 11:05 51°34.358 2°38.591 7.1 348 17.3 101460 90
2001-08-14 11:06 51°34.387 2°38.949 6.5 341 17.1 101460 90
2001-08-14 11:07 51°34.408 2°39.305 7.1 340 17 101460 91
2001-08-14 11:08 51°34.443 2°39.659 6.6 338 16.9 101470 91
2001-08-14 11:09 51°34.469 2°40.013 7.5 340 16.8 101470 91
2001-08-14 11:10 51°34.565 2°40.325 4.6 336 16.7 101470 92
2001-08-14 11:11 51°34.735 2°40.568 3.7 338 16.6 101470 92
2001-08-14 11:12 51°34.942 2°40.726 2.9 355 16.6 101470 92
2001-08-14 11:13 51°35.158 2°40.855 3.1 353 16.7 101470 93
2001-08-14 11:14 51°35.374 2°40.979 4 356 16.8 101470 93
2001-08-14 11:15 51°35.587 2°41.113 4 359 16.9 101470 92
2001-08-14 11:16 51°35.8 2°41.243 3.8 348 17 101470 92
2001-08-14 11:17 51°36.015 2°41.372 4.2 350 17 101470 91
2001-08-14 11:18 51°36.231 2°41.501 3.9 356 17 101470 91
2001-08-14 11:19 51°36.445 2°41.631 4.4 343 17.1 101470 91
2001-08-14 11:20 51°36.665 2°41.74 4.1 351 17.1 101470 91
2001-08-14 11:21 51°36.884 2°41.858 4.2 354 17.1 101470 91
2001-08-14 11:22 51°37.102 2°41.974 3.7 359 17.1 101470 90
2001-08-14 11:23 51°37.325 2°42.075 4.7 354 17.1 101470 90
2001-08-14 11:24 51°37.548 2°42.171 4.2 2 17.2 101470 90
2001-08-14 11:25 51°37.77 2°42.273 4.3 2 17.2 101470 90
2001-08-14 11:26 51°37.991 2°42.374 4.1 2 17.3 101470 90
2001-08-14 11:27 51°38.214 2°42.471 3.5 360 17.3 101460 89
2001-08-14 11:28 51°38.435 2°42.584 3.9 358 17.3 101460 89
2001-08-14 11:29 51°38.658 2°42.696 4.4 353 17.4 101460 89
2001-08-14 11:30 51°38.879 2°42.811 4.7 350 17.4 101460 89
2001-08-14 11:31 51°39.095 2°42.936 4.7 350 17.5 101460 89
2001-08-14 11:32 51°39.316 2°43.047 4.8 7 17.4 101460 89
2001-08-14 11:33 51°39.539 2°43.152 4.5 4 17.5 101460 89
2001-08-14 11:34 51°39.763 2°43.256 4.6 11 17.5 101460 89
2001-08-14 11:35 51°39.917 2°43.304 0.2 67 17.6 101460 89
2001-08-14 11:36 51°39.978 2°43.232 6 35 17.6 101460 88
2001-08-14 11:37 51°39.928 2°43.149 5.8 353 17.6 101450 88
2001-08-14 11:38 51°39.84 2°43.213 5.9 345 17.6 101450 88
2001-08-14 11:39 51°39.797 2°43.287 4.1 320 17.4 101450 88
2001-08-14 11:40 51°39.802 2°43.302 3.1 269 17.3 101460 89
2001-08-14 11:41 51°39.811 2°43.317 2.6 255 17.3 101460 90
2001-08-14 11:42 51°39.821 2°43.33 2.2 243 17.3 101460 90
2001-08-14 11:43 51°39.83 2°43.44 4.7 343 17.3 101450 90
2001-08-14 11:44 51°39.748 2°43.614 6.7 348 17.2 101450 90
2001-08-14 11:45 51°39.651 2°43.829 7.3 350 17.2 101440 90
2001-08-14 11:46 51°39.561 2°44.031 4.7 323 17.2 101440 90
2001-08-14 11:47 51°39.546 2°44.144 3.4 302 17.1 101450 90
2001-08-14 11:48 51°39.544 2°44.163 2.4 332 17 101460 91
2001-08-14 11:49 51°39.541 2°44.174 2.2 343 17 101460 91
2001-08-14 11:50 51°39.54 2°44.183 2.1 351 17 101460 91
2001-08-14 11:51 51°39.493 2°44.247 5.1 341 17 101450 91
2001-08-14 11:52 51°39.42 2°44.448 5.9 350 17 101450 91
2001-08-14 11:53 51°39.321 2°44.658 6.4 349 17 101450 91
2001-08-14 11:54 51°39.217 2°44.869 6.2 347 17.1 101450 91
2001-08-14 11:55 51°39.139 2°45.05 4.6 332 17.1 101450 90
2001-08-14 11:56 51°39.103 2°45.124 2.8 326 17.1 101450 90
2001-08-14 11:57 51°39.096 2°45.132 2.2 343 17 101450 90
2001-08-14 11:58 51°39.092 2°45.132 2.5   17.1 101450 91
2001-08-14 11:59 51°39.087 2°45.133 2.8 1 17.2 101450 91
2001-08-14 12:00 51°38.992 2°45.108 6.9 357 17.3 101450 89
2001-08-14 12:01 51°38.793 2°45.113 7.9 357 17.3 101440 89
2001-08-14 12:02 51°38.59 2°45.101 8.1   17.4 101440 88
2001-08-14 12:03 51°38.386 2°45.09 8.4 359 17.4 101440 88
2001-08-14 12:04 51°38.182 2°45.081 8.9 359 17.4 101440 88
2001-08-14 12:05 51°37.978 2°45.067 8.4 357 17.5 101440 87
2001-08-14 12:06 51°37.775 2°45.056 7.8 358 17.5 101450 87
2001-08-14 12:07 51°37.654 2°45.021 4.7 8 17.5 101450 87
2001-08-14 12:08 51°37.634 2°44.986 1.2 37 17.6 101460 87
2001-08-14 12:09 51°37.639 2°44.974 0.6 6 17.7 101460 87
2001-08-14 12:10 51°37.647 2°44.964 0.7 90 17.7 101460 87
2001-08-14 12:11 51°37.656 2°44.955 0.5 81 17.7 101460 86
2001-08-14 12:12 51°37.677 2°44.827 6.3 16 17.7 101460 87
2001-08-14 12:13 51°37.671 2°44.564 7.6 15 17.7 101460 87
2001-08-14 12:14 51°37.681 2°44.28 7.1 17 17.8 101460 87
2001-08-14 12:15 51°37.687 2°44.027 6.1 33 17.8 101460 86
2001-08-14 12:16 51°37.706 2°43.904 3.6 133 17.8 101460 86
2001-08-14 12:17 51°37.709 2°43.882 2.9 35 17.9 101470 86
2001-08-14 12:18 51°37.711 2°43.872 2.9 38 18 101460 86
2001-08-14 12:19 51°37.714 2°43.862 3.2 33 18.1 101460 86
2001-08-14 12:20 51°37.697 2°43.739 7.2 23 18.1 101460 85
2001-08-14 12:21 51°37.73 2°43.439 8 21 18 101450 85
2001-08-14 12:22 51°37.773 2°43.125 7.4 18 17.9 101460 85
2001-08-14 12:23 51°37.809 2°42.937 2.2 42 17.9 101460 86
2001-08-14 12:24 51°37.819 2°42.892 1.5 47 18 101470 86
2001-08-14 12:25 51°37.825 2°42.886 2.7 44 18.1 101460 86
2001-08-14 12:26 51°37.831 2°42.879 1.8 5 18.1 101460 86
2001-08-14 12:27 51°37.83 2°42.842 4.3 17 18.2 101460 85
2001-08-14 12:28 51°37.701 2°42.742 8.1   18.1 101450 85
2001-08-14 12:29 51°37.487 2°42.674 8.8 359 18 101450 86
2001-08-14 12:30 51°37.266 2°42.617 8.6 355 17.9 101450 86
2001-08-14 12:31 51°37.046 2°42.551 8 359 17.9 101450 87
2001-08-14 12:32 51°36.826 2°42.507 8.2 359 17.8 101450 86
2001-08-14 12:33 51°36.604 2°42.446 8.7 357 17.8 101450 87
2001-08-14 12:34 51°36.381 2°42.382 9.7 3 17.7 101450 86
2001-08-14 12:35 51°36.203 2°42.336 5.1 353 17.7 101450 87
2001-08-14 12:36 51°36.147 2°42.332 1.9 5 17.8 101450 87
2001-08-14 12:37 51°36.139 2°42.324 1.9 8 17.9 101460 87
2001-08-14 12:38 51°36.132 2°42.315 2.3 16 18 101460 87
2001-08-14 12:39 51°36.128 2°42.306 2.3 22 18.1 101460 86
2001-08-14 12:40 51°36.081 2°42.261 4.7 349 18.1 101460 85
2001-08-14 12:41 51°35.974 2°42.401 4.3 345 18 101450 85
2001-08-14 12:42 51°35.929 2°42.677 4.5 349 17.8 101460 87
2001-08-14 12:43 51°35.864 2°42.945 3.9 344 17.8 101460 87
2001-08-14 12:44 51°35.834 2°43.116 2.1 323 17.8 101460 87
2001-08-14 12:45 51°35.822 2°43.167 1.6 230 17.8 101460 87
2001-08-14 12:46 51°35.821 2°43.169 1.3 226 17.8 101460 88
2001-08-14 12:47 51°35.818 2°43.172 1.5 245 17.8 101450 87
2001-08-14 12:48 51°35.814 2°43.174 1.5 233 17.9 101450 87
2001-08-14 12:49 51°35.808 2°43.177 1.5 243 18 101460 87
2001-08-14 12:50 51°35.802 2°43.179 1.1 251 18 101450 86
2001-08-14 12:51 51°35.796 2°43.181 1.5 271 18.1 101450 86
2001-08-14 12:52 51°35.788 2°43.182 1.3 271 18.2 101460 86
2001-08-14 12:53 51°35.779 2°43.182 1.3 271 18.3 101460 85
2001-08-14 12:54 51°35.718 2°43.247 2.5 335 18.3 101450 85
2001-08-14 12:55 51°35.642 2°43.436 4.2 346 18.1 101450 86
2001-08-14 12:56 51°35.564 2°43.711 4.8 356 18 101450 86
2001-08-14 12:57 51°35.476 2°43.932 3 346 18.1 101450 86
2001-08-14 12:58 51°35.425 2°44.038 0.9 318 18.1 101450 85
2001-08-14 12:59 51°35.418 2°44.051 1 194 18.1 101450 85
2001-08-14 13:00 51°35.416 2°44.055 0.8 138 18.1 101460 85
2001-08-14 13:01 51°35.414 2°44.059 1.4 148 18.2 101450 85
2001-08-14 13:02 51°35.416 2°44.13 1.5 5 18.2 101450 85
2001-08-14 13:03 51°35.305 2°44.213 5.2 357 18.3 101450 85
2001-08-14 13:04 51°35.132 2°44.072 6.9 357 18.3 101440 86
2001-08-14 13:05 51°34.944 2°43.862 7.6 359 18.3 101440 85
2001-08-14 13:06 51°34.766 2°43.627 7.5 358 18.3 101440 85
2001-08-14 13:07 51°34.588 2°43.393 7.4 358 18.4 101430 84
2001-08-14 13:08 51°34.405 2°43.168 7 359 18.4 101440 85
2001-08-14 13:09 51°34.226 2°42.935 7.4 357 18.4 101440 85
2001-08-14 13:10 51°34.044 2°42.704 7.3 353 18.4 101440 85
2001-08-14 13:11 51°33.887 2°42.496 5 358 18.4 101440 85
2001-08-14 13:12 51°33.854 2°42.406 0.9 295 18.4 101440 85
2001-08-14 13:13 51°33.851 2°42.398 0.8 294 18.4 101440 85
2001-08-14 13:14 51°33.848 2°42.386 1.1 303 18.3 101440 86
2001-08-14 13:15 51°33.842 2°42.372 1.1 320 18.3 101430 85
2001-08-14 13:16 51°33.851 2°42.188 6.6 1 18.2 101430 86
2001-08-14 13:17 51°33.93 2°41.899 7.4 2 18.2 101420 86
2001-08-14 13:18 51°34.008 2°41.711 3.9 3 18.1 101420 87
2001-08-14 13:19 51°34.027 2°41.658 0.9 2 18.2 101420 87
2001-08-14 13:20 51°34.022 2°41.65 0.8 2 18.3 101430 87
2001-08-14 13:21 51°34.018 2°41.638 1 4 18.4 101420 86
2001-08-14 13:22 51°34.017 2°41.62 1.7 359 18.5 101420 86
2001-08-14 13:23 51°34.048 2°41.423 6.4 1 18.5 101420 85
2001-08-14 13:24 51°34.131 2°41.161 6.7   18.4 101410 86
2001-08-14 13:25 51°34.17 2°40.942 3.3 355 18.3 101420 86
2001-08-14 13:26 51°34.163 2°40.877 0.8 271 18.4 101420 86
2001-08-14 13:27 51°34.159 2°40.868 0.7 285 18.4 101420 86
2001-08-14 13:28 51°34.152 2°40.857 0.8 298 18.3 101420 86
2001-08-14 13:29 51°34.145 2°40.844 1 279 18.4 101410 86
2001-08-14 13:30 51°34.138 2°40.829 1.1 265 18.3 101410 86
2001-08-14 13:31 51°34.129 2°40.812 1.4 262 18.3 101410 87
2001-08-14 13:32 51°34.12 2°40.796 1.2 237 18.3 101410 87
2001-08-14 13:33 51°34.101 2°40.762 1.5 303 18.3 101410 86
2001-08-14 13:34 51°33.945 2°40.657 5.2 357 18.3 101410 86
2001-08-14 13:35 51°33.729 2°40.512 5.9 355 18.3 101400 87
2001-08-14 13:36 51°33.512 2°40.359 5.6 357 18.4 101400 86
2001-08-14 13:37 51°33.29 2°40.225 5.4 358 18.5 101400 86
2001-08-14 13:38 51°33.073 2°40.075 5.9 359 18.6 101400 86
2001-08-14 13:39 51°32.851 2°39.939 6.1 357 18.6 101400 85
2001-08-14 13:40 51°32.629 2°39.807 5.5 1 18.7 101400 85
2001-08-14 13:41 51°32.408 2°39.678 6.1 360 18.8 101400 85
2001-08-14 13:42 51°32.204 2°39.552 3.3 357 18.8 101400 84
2001-08-14 13:43 51°32.103 2°39.444 1.3 311 18.9 101400 85
2001-08-14 13:44 51°32.087 2°39.43 1.3 223 18.9 101400 85
2001-08-14 13:45 51°32.075 2°39.428 0.8 214 18.9 101400 85
2001-08-14 13:46 51°32.064 2°39.423 0.8 209 18.9 101400 85
2001-08-14 13:47 51°32.028 2°39.372 1.5 346 18.9 101400 85
2001-08-14 13:48 51°31.89 2°39.416 4.9 13 18.8 101400 85
2001-08-14 13:49 51°31.791 2°39.645 5.7 15 18.9 101390 85
2001-08-14 13:50 51°31.697 2°39.867 3.6 17 19 101390 84
2001-08-14 13:51 51°31.631 2°39.951 0.9 132 19.1 101400 85
2001-08-14 13:52 51°31.613 2°39.949 0.2 100 19.2 101400 84
2001-08-14 13:53 51°31.6 2°39.941 0.2 53 19.2 101400 84
2001-08-14 13:54 51°31.588 2°39.936 0.5 266 19.2 101390 84
2001-08-14 13:55 51°31.573 2°39.976 4.6 24 19.3 101390 83
2001-08-14 13:56 51°31.515 2°40.224 7.8 13 19.3 101390 83
2001-08-14 13:57 51°31.438 2°40.521 7.9 14 19.3 101390 84
2001-08-14 13:58 51°31.366 2°40.819 7.4 18 19.4 101390 83
2001-08-14 13:59 51°31.293 2°40.97 1.9 317 19.4 101390 83
2001-08-14 14:00 51°31.27 2°40.971 0.5 250 19.5 101400 82
2001-08-14 14:01 51°31.256 2°40.948 0.7 239 19.5 101390 83
2001-08-14 14:02 51°31.24 2°40.927 0.1 248 19.5 101400 82
2001-08-14 14:03 51°31.224 2°40.911 0.4 3 19.4 101390 82
2001-08-14 14:04 51°31.198 2°40.944 5.8 30 19.3 101400 83
2001-08-14 14:05 51°31.214 2°41.185 8.7 9 19.3 101390 84
2001-08-14 14:06 51°31.285 2°41.498 9.2 9 19.3 101390 84
2001-08-14 14:07 51°31.357 2°41.811 9.2 8 19.3 101390 84
2001-08-14 14:08 51°31.429 2°42.127 9.2 10 19.3 101380 84
2001-08-14 14:09 51°31.507 2°42.437 9.4 7 19.2 101380 84
2001-08-14 14:10 51°31.587 2°42.745 9.5 3 19.2 101380 84
2001-08-14 14:11 51°31.677 2°43.043 9.1 6 19.2 101380 83
2001-08-14 14:12 51°31.77 2°43.335 8.8 9 19.2 101380 83
2001-08-14 14:13 51°31.862 2°43.627 8.9 6 19.2 101380 84
2001-08-14 14:14 51°31.945 2°43.925 8.1 10 19.1 101380 84
2001-08-14 14:15 51°32.021 2°44.23 9 8 19.2 101380 83
2001-08-14 14:16 51°32.072 2°44.462 5.9 16 19.2 101380 83
2001-08-14 14:17 51°32.064 2°44.522 2.8 4 19.3 101390 84
2001-08-14 14:18 51°32.055 2°44.514 2.3 345 19.4 101390 83
2001-08-14 14:19 51°32.047 2°44.5 2.1 342 19.3 101380 83
2001-08-14 14:20 51°32.046 2°44.488 1.6 348 19.2 101380 83
2001-08-14 14:21 51°32.061 2°44.668 8.2 14 19.1 101370 85
2001-08-14 14:22 51°31.963 2°44.967 9.4 13 19.1 101370 84
2001-08-14 14:23 51°31.821 2°45.236 9 17 19.2 101370 84
2001-08-14 14:24 51°31.635 2°45.439 8.6 21 19.3 101370 83
2001-08-14 14:25 51°31.425 2°45.581 8.7 20 19.4 101370 83
2001-08-14 14:26 51°31.208 2°45.708 8.6 20 19.4 101370 83
2001-08-14 14:27 51°30.982 2°45.797 8.2 19 19.4 101370 83
2001-08-14 14:28 51°30.789 2°45.848 5.6 36 19.4 101370 83
2001-08-14 14:29 51°30.719 2°45.875 3.9 40 19.4 101370 83
2001-08-14 14:30 51°30.702 2°45.849 2.7 36 19.5 101370 83
2001-08-14 14:31 51°30.684 2°45.824 2.7 34 19.5 101370 82
2001-08-14 14:32 51°30.667 2°45.818 4.5 15 19.6 101370 83
2001-08-14 14:33 51°30.76 2°45.939 7.8 353 19.6 101360 82
2001-08-14 14:34 51°30.955 2°46.01 8 355 19.6 101360 83
2001-08-14 14:35 51°31.158 2°46.057 8.6 358 19.5 101370 83
2001-08-14 14:36 51°31.363 2°46.085 8.2 357 19.5 101360 83
2001-08-14 14:37 51°31.565 2°46.144 8.3 359 19.5 101360 84
2001-08-14 14:38 51°31.768 2°46.195 8.6 358 19.5 101370 83
2001-08-14 14:39 51°31.971 2°46.248 8.8 358 19.5 101360 83
2001-08-14 14:40 51°32.172 2°46.302 8 355 19.6 101360 83
2001-08-14 14:41 51°32.374 2°46.361 8.1 355 19.6 101360 83
2001-08-14 14:42 51°32.576 2°46.414 8.4 355 19.6 101360 83
2001-08-14 14:43 51°32.778 2°46.466 8.5 353 19.6 101360 83
2001-08-14 14:44 51°32.979 2°46.525 8 353 19.7 101350 83
2001-08-14 14:45 51°33.092 2°46.583 5.4 353 19.7 101370 83
2001-08-14 14:46 51°33.11 2°46.586 2.9 305 19.7 101370 82
2001-08-14 14:47 51°33.115 2°46.561 2 300 19.6 101370 84
2001-08-14 14:48 51°33.117 2°46.532 2 282 19.5 101370 84
2001-08-14 14:49 51°33.177 2°46.536 6.6 355 19.4 101360 84
2001-08-14 14:50 51°33.309 2°46.736 8.8 358 19.4 101350 84
2001-08-14 14:51 51°33.435 2°46.985 9.1 358 19.5 101350 84
2001-08-14 14:52 51°33.559 2°47.243 9.6 359 19.6 101350 83
2001-08-14 14:53 51°33.681 2°47.5 9.3 359 19.7 101350 83
2001-08-14 14:54 51°33.8 2°47.762 10 1 19.8 101350 83
2001-08-14 14:55 51°33.918 2°48.025 9.6 358 19.8 101360 82
2001-08-14 14:56 51°34.044 2°48.276 9.3   19.8 101350 82
2001-08-14 14:57 51°34.161 2°48.497 6.2 356 19.9 101360 82
2001-08-14 14:58 51°34.209 2°48.544 2.6 3 20 101370 82
2001-08-14 14:59 51°34.201 2°48.547 2.7 19 20 101370 81
2001-08-14 15:00 51°34.186 2°48.547 2.6 26 20.1 101370 81
2001-08-14 15:01 51°34.189 2°48.594 4.7 355 20.1 101360 82
2001-08-14 15:02 51°34.281 2°48.573 4 334 20.1 101360 81
2001-08-14 15:03 51°34.443 2°48.407 6.3 346 19.9 101360 83
2001-08-14 15:04 51°34.623 2°48.22 6.6 349 19.8 101350 83
2001-08-14 15:05 51°34.809 2°48.041 6.5 350 19.9 101360 82
2001-08-14 15:06 51°34.995 2°47.863 6.4 347 19.9 101360 82
2001-08-14 15:07 51°35.179 2°47.682 6.7 350 19.9 101360 82
2001-08-14 15:08 51°35.357 2°47.501 5.6 347 20 101360 83
2001-08-14 15:09 51°35.453 2°47.431 3.1 339 20 101360 82
2001-08-14 15:10 51°35.449 2°47.416 2.1 351 19.9 101370 83
2001-08-14 15:11 51°35.436 2°47.402 2.4 15 19.9 101370 83
2001-08-14 15:12 51°35.419 2°47.388 2.3 26 20 101370 83
2001-08-14 15:13 51°35.449 2°47.471 6.4 356 20 101360 83
2001-08-14 15:14 51°35.593 2°47.652 8.9 358 20 101350 82
2001-08-14 15:15 51°35.741 2°47.868 8.8 355 20.1 101350 82
2001-08-14 15:16 51°35.893 2°48.083 8.8 359 20.1 101350 82
2001-08-14 15:17 51°36.045 2°48.3 9.5 359 20.2 101350 82
2001-08-14 15:18 51°36.195 2°48.524 9.4 1 20.2 101350 82
2001-08-14 15:19 51°36.345 2°48.746 9.7 357 20.2 101350 81
2001-08-14 15:20 51°36.464 2°48.944 6.6 357 20.2 101350 81
2001-08-14 15:21 51°36.477 2°49.03 3.6 360 20.1 101370 81
2001-08-14 15:22 51°36.466 2°49.032 3.6 356 20.1 101370 82
2001-08-14 15:23 51°36.456 2°49.028 3.2 347 20.1 101360 81
2001-08-14 15:24 51°36.453 2°49.033 4.6 344 20 101360 82
2001-08-14 15:25 51°36.581 2°49.066 7.8 345 19.9 101360 83
2001-08-14 15:26 51°36.782 2°49.085 8.2 346 19.8 101350 83
2001-08-14 15:27 51°36.984 2°49.126 8.2 348 19.8 101350 83
2001-08-14 15:28 51°37.19 2°49.133 8.1 348 19.8 101350 83
2001-08-14 15:29 51°37.386 2°49.2 8.8 355 19.9 101350 82
2001-08-14 15:30 51°37.582 2°49.279 7.7 352 19.9 101350 82
2001-08-14 15:31 51°37.782 2°49.309 7.8 351 20 101350 82
2001-08-14 15:32 51°37.98 2°49.368 8 352 20 101350 82
2001-08-14 15:33 51°38.149 2°49.401 5.6 347 20.1 101350 83
2001-08-14 15:34 51°38.2 2°49.382 2.6 341 20 101360 82
2001-08-14 15:35 51°38.193 2°49.378 2.5 359 20 101360 83
2001-08-14 15:36 51°38.181 2°49.374 2.4 357 20 101360 83
2001-08-14 15:37 51°38.167 2°49.374 3.4   20.1 101360 82
2001-08-14 15:38 51°38.12 2°49.512 8.6 21 20.1 101360 81
2001-08-14 15:39 51°37.945 2°49.727 9.6 18 20.1 101350 82
2001-08-14 15:40 51°37.761 2°49.946 9.9 16 20.2 101350 82
2001-08-14 15:41 51°37.591 2°50.187 9.3 15 20.2 101350 82
2001-08-14 15:42 51°37.409 2°50.408 9.6 21 20.2 101350 82
2001-08-14 15:43 51°37.217 2°50.606 9.4 18 20.2 101350 82
2001-08-14 15:44 51°37.119 2°50.753 5.3 26 20.2 101360 82
2001-08-14 15:45 51°37.093 2°50.756 0.7 246 20.2 101360 81
2001-08-14 15:46 51°37.08 2°50.735 0.7 90 20.1 101360 82
2001-08-14 15:47 51°37.065 2°50.716 0.8 96 20 101360 83
2001-08-14 15:48 51°37.009 2°50.708 3.6 37 20 101360 83
2001-08-14 15:49 51°36.795 2°50.735 9.2 27 19.9 101350 83
2001-08-14 15:50 51°36.557 2°50.768 9.4 24 20 101350 84
2001-08-14 15:51 51°36.318 2°50.813 8.5 26 20 101360 84
2001-08-14 15:52 51°36.079 2°50.854 7.8 24 20 101360 84
2001-08-14 15:53 51°35.841 2°50.902 8 28 20.1 101350 83
2001-08-14 15:54 51°35.603 2°50.95 8.7 30 20 101350 83
2001-08-14 15:55 51°35.366 2°51.004 9 29 20 101350 83
2001-08-14 15:56 51°35.128 2°51.053 8.7 30 20 101350 83
2001-08-14 15:57 51°34.895 2°51.119 9.2 31 19.9 101340 83
2001-08-14 15:58 51°34.658 2°51.161 8.2 28 20 101340 84
2001-08-14 15:59 51°34.422 2°51.208 8.4 30 20.1 101350 84
2001-08-14 16:00 51°34.186 2°51.246 8.8 34 20.1 101340 84
2001-08-14 16:01 51°33.953 2°51.302 8.8 34 20.2 101340 82
2001-08-14 16:02 51°33.718 2°51.335 8.1 29 20.3 101340 83
2001-08-14 16:03 51°33.483 2°51.379 9.3 34 20.3 101340 83
2001-08-14 16:04 51°33.249 2°51.422 8.2 30 20.3 101340 84
2001-08-14 16:05 51°33.013 2°51.464 9 30 20.3 101340 83
2001-08-14 16:06 51°32.779 2°51.508 9.3 35 20.4 101330 83
2001-08-14 16:07 51°32.543 2°51.552 9.1 35 20.4 101330 83
2001-08-14 16:08 51°32.307 2°51.589 8.9 35 20.3 101330 83
2001-08-14 16:09 51°32.072 2°51.628 9.1 38 20.3 101330 84
2001-08-14 16:10 51°31.836 2°51.672 8 42 20.2 101320 82
2001-08-14 16:11 51°31.6 2°51.713 8.7 42 20.1 101330 82
2001-08-14 16:12 51°31.365 2°51.764 8.6 40 20.1 101320 83
2001-08-14 16:13 51°31.128 2°51.807 8.7 41 20.1 101330 83
2001-08-14 16:14 51°30.892 2°51.859 8 40 20 101330 84
2001-08-14 16:15 51°30.656 2°51.907 6.9 41 19.9 101330 83
2001-08-14 16:16 51°30.418 2°51.952 8 36 20 101330 84
2001-08-14 16:17 51°30.182 2°51.996 8.5 39 20 101310 84
2001-08-14 16:18 51°29.949 2°52.045 7.4 40 19.9 101310 84
2001-08-14 16:19 51°29.717 2°52.096 7.7 42 19.8 101320 83
2001-08-14 16:20 51°29.485 2°52.134 6.1 40 19.8 101320 84
2001-08-14 16:21 51°29.252 2°52.166 7.7 36 19.9 101320 83
2001-08-14 16:22 51°29.018 2°52.2 7.2 38 20 101320 84
2001-08-14 16:23 51°28.785 2°52.24 6.6 38 20.1 101310 83
2001-08-14 16:24 51°28.551 2°52.256 7.6 39 20.2 101310 83
2001-08-14 16:25 51°28.315 2°52.268 5.7 39 20.2 101310 82
2001-08-14 16:26 51°28.078 2°52.272 6.1 45 20.2 101310 82
2001-08-14 16:27 51°27.84 2°52.285 5.7 35 20.3 101310 82
2001-08-14 16:28 51°27.602 2°52.308 5.9 34 20.3 101310 82
2001-08-14 16:29 51°27.365 2°52.339 6.9 43 20.3 101310 81
2001-08-14 16:30 51°27.129 2°52.38 6.2 41 20.3 101310 81
2001-08-14 16:31 51°26.896 2°52.425 8.1 128 20.3 101310 81
2001-08-14 16:32 51°26.663 2°52.463 6.2 41 20.3 101310 80
2001-08-14 16:33 51°26.429 2°52.466 6.7 39 20.4 101310 80
2001-08-14 16:34 51°26.192 2°52.443 4.9 35 20.5 101310 80
2001-08-14 16:35 51°25.955 2°52.417 6.2 42 20.5 101310 80
2001-08-14 16:36 51°25.718 2°52.4 6.1 39 20.5 101300 80
2001-08-14 16:37 51°25.481 2°52.388 5.6 41 20.5 101300 81
2001-08-14 16:38 51°25.244 2°52.373 6.2 317 20.5 101300 80
2001-08-14 16:39 51°25.007 2°52.358 5.4 38 20.4 101290 80
2001-08-14 16:40 51°24.769 2°52.341 5.1 42 20.4 101300 79
2001-08-14 16:41 51°24.531 2°52.328 5.6 41 20.5 101300 79
2001-08-14 16:42 51°24.295 2°52.309 4.3 34 20.5 101300 79
2001-08-14 16:43 51°24.063 2°52.236 4.9 38 20.5 101300 79
2001-08-14 16:44 51°23.83 2°52.167 5.1 38 20.5 101300 79
2001-08-14 16:45 51°23.598 2°52.111 4.1 39 20.5 101300 79
2001-08-14 16:46 51°23.365 2°52.048 5.3 37 20.5 101300 80
2001-08-14 16:47 51°23.133 2°51.978 5.9 43 20.5 101290 81
2001-08-14 16:48 51°22.899 2°51.915 5 36 20.5 101300 81
2001-08-14 16:49 51°22.665 2°51.851 4.5 45 20.6 101300 81
2001-08-14 16:50 51°22.429 2°51.813 5.2 38 20.6 101290 79
2001-08-14 16:51 51°22.195 2°51.819 6.2 41 20.6 101290 80
2001-08-14 16:52 51°21.961 2°51.83 6.1 37 20.7 101290 80
2001-08-14 16:53 51°21.729 2°51.837 6.2 36 20.7 101290 81
2001-08-14 16:54 51°21.498 2°51.848 5 44 20.7 101290 81
2001-08-14 16:55 51°21.267 2°51.865 5.5 36 20.7 101290 81
2001-08-14 16:56 51°21.036 2°51.891 4.8 38 20.7 101290 81
2001-08-14 16:57 51°20.804 2°51.908 5 45 20.6 101290 80
2001-08-14 16:58 51°20.573 2°51.935 5.3 132 20.6 101290 80
2001-08-14 16:59 51°20.341 2°51.952 5.2 42 20.6 101280 79
2001-08-14 17:00 51°20.109 2°51.962 4.2 43 20.6 101280 78
2001-08-14 17:01 51°19.878 2°51.959 4.5 42 20.6 101290 79
2001-08-14 17:02 51°19.644 2°51.954 5.1 44 20.6 101290 79
2001-08-14 17:03 51°19.411 2°51.96 6 40 20.7 101290 79
2001-08-14 17:04 51°19.18 2°51.962 6.2 33 20.6 101290 79
2001-08-14 17:05 51°18.949 2°51.982 6.3 39 20.6 101290 79
2001-08-14 17:06 51°18.718 2°52.008 5.4 320 20.6 101280 78
2001-08-14 17:07 51°18.487 2°52.031 4.9 43 20.6 101290 78
2001-08-14 17:08 51°18.258 2°52.052 5.6 45 20.6 101280 78
2001-08-14 17:09 51°18.029 2°52.072 5.5 42 20.6 101280 78
2001-08-14 17:10 51°17.8 2°52.097 5.1 36 20.6 101280 78
2001-08-14 17:11 51°17.573 2°52.14 6.3 44 20.6 101280 79
2001-08-14 17:12 51°17.349 2°52.214 7.8 39 20.6 101280 79
2001-08-14 17:13 51°17.135 2°52.338 6.4 38 20.6 101270 79
2001-08-14 17:14 51°16.925 2°52.473 8.6 36 20.6 101270 79
2001-08-14 17:15 51°16.718 2°52.624 8 39 20.6 101270 79
2001-08-14 17:16 51°16.513 2°52.785 8.4 39 20.6 101270 79
2001-08-14 17:17 51°16.314 2°52.958 9.6 43 20.5 101270 79
2001-08-14 17:18 51°16.12 2°53.14 8.7 42 20.5 101270 78
2001-08-14 17:19 51°15.931 2°53.337 8.9 39 20.5 101260 79
2001-08-14 17:20 51°15.74 2°53.525 8.8 37 20.5 101260 77
2001-08-14 17:21 51°15.551 2°53.719 9.5 45 20.5 101260 78
2001-08-14 17:22 51°15.363 2°53.913 10.2 35 20.5 101260 78
2001-08-14 17:23 51°15.179 2°54.115 11.2 39 20.5 101260 78
2001-08-14 17:24 51°14.994 2°54.311 10.4 35 20.5 101270 78
2001-08-14 17:25 51°14.807 2°54.508 12 37 20.5 101270 78
2001-08-14 17:26 51°14.621 2°54.705 10.9 36 20.5 101270 78
2001-08-14 17:27 51°14.442 2°54.918 12.5 35 20.5 101270 79
2001-08-14 17:28 51°14.301 2°55.182 11.3 31 20.6 101280 79
2001-08-14 17:29 51°14.188 2°55.35 4.1 49 20.6 101280 77
2001-08-14 17:30 51°14.094 2°55.423 4.3 38 20.7 101290 74
2001-08-14 17:31 51°14.013 2°55.48 2.6 352 20.9 101280 68
2001-08-14 17:32 51°13.918 2°55.545 4.1 45 21.2 101280 65
2001-08-14 17:33 51°13.823 2°55.624 4 47 21.5 101280 65
2001-08-14 17:34 51°13.757 2°55.71 4.9 22 21.9 101280 63
2001-08-14 17:35 51°13.721 2°55.788 2.4 3 22.2 101280 62
2001-08-14 17:36 51°13.698 2°55.852 2.1 37 22.5 101280 62
2001-08-14 17:37 51°13.683 2°55.908 2.3 37 22.7 101280 61
2001-08-14 17:38 51°13.677 2°55.922 1.3 3 23 101280 60
2001-08-14 17:39 51°13.677 2°55.924 0.4 108 23.2 101280 59
2001-08-14 17:40 51°13.677 2°55.924 0.4 88 23.4 101280 59
2001-08-14 17:41 51°13.677 2°55.924 0.7 107 23.4 101280 58
2001-08-14 17:42 51°13.677 2°55.924 0.5 53 23.5 101280 58